Time,TemperatureF,DewpointF,PressureIn,WindDirection,WindDirectionDegrees,WindSpeedMPH,WindSpeedGustMPH,Humidity,HourlyPrecipIn,Conditions,Clouds,dailyrainin,SoftwareType,DateUTC
2013-05-22 00:02:00,59.0,57.0,29.53,North,349,0.0,0.0,93,0.00,,,0.42,,2013-05-22 05:02:00,
2013-05-22 00:12:00,59.0,57.0,29.53,North,349,0.0,0.0,93,0.00,,,0.42,,2013-05-22 05:12:00,
2013-05-22 00:21:00,59.0,57.0,29.54,North,349,0.0,0.0,94,0.00,,,0.42,,2013-05-22 05:21:00,
2013-05-22 00:32:00,58.0,56.0,29.54,North,349,0.0,0.0,94,0.00,,,0.42,,2013-05-22 05:32:00,
2013-05-22 00:42:00,58.0,56.0,29.54,North,349,0.0,0.0,94,0.00,,,0.42,,2013-05-22 05:42:00,
2013-05-22 00:51:00,58.0,56.0,29.54,North,349,0.0,0.0,94,0.00,,,0.42,,2013-05-22 05:51:00,
2013-05-22 01:01:00,58.0,57.0,29.53,North,349,0.0,1.0,95,0.00,,,0.42,,2013-05-22 06:01:00,
2013-05-22 01:12:00,58.0,57.0,29.53,North,349,0.0,1.0,95,0.00,,,0.42,,2013-05-22 06:12:00,
2013-05-22 01:21:00,57.0,55.0,29.53,North,349,0.0,0.0,94,0.00,,,0.42,,2013-05-22 06:21:00,
2013-05-22 01:32:00,58.0,57.0,29.53,North,349,0.0,0.0,95,0.00,,,0.42,,2013-05-22 06:32:00,
2013-05-22 01:42:00,57.0,56.0,29.52,North,349,0.0,0.0,95,0.00,,,0.42,,2013-05-22 06:42:00,
2013-05-22 01:52:00,57.0,56.0,29.52,North,349,0.0,0.0,95,0.00,,,0.42,,2013-05-22 06:52:00,
2013-05-22 02:01:00,57.0,56.0,29.52,NNW,348,0.0,0.0,95,0.00,,,0.42,,2013-05-22 07:01:00,
2013-05-22 02:11:00,57.0,56.0,29.52,NNW,348,0.0,0.0,95,0.00,,,0.42,,2013-05-22 07:11:00,
2013-05-22 02:21:00,57.0,56.0,29.52,NNW,348,0.0,0.0,95,0.00,,,0.42,,2013-05-22 07:21:00,
2013-05-22 02:32:00,57.0,56.0,29.51,NNW,348,0.0,0.0,95,0.00,,,0.42,,2013-05-22 07:32:00,
2013-05-22 02:42:00,57.0,56.0,29.51,NNW,348,0.0,0.0,95,0.00,,,0.42,,2013-05-22 07:42:00,
2013-05-22 02:52:00,56.0,55.0,29.51,NNW,348,0.0,0.0,95,0.00,,,0.42,,2013-05-22 07:52:00,
2013-05-22 03:02:00,56.0,55.0,29.51,NNW,348,0.0,0.0,95,0.00,,,0.42,,2013-05-22 08:02:00,
2013-05-22 03:11:00,56.0,55.0,29.51,NNW,348,0.0,0.0,95,0.00,,,0.42,,2013-05-22 08:11:00,
2013-05-22 03:22:00,56.0,55.0,29.50,NNW,348,0.0,0.0,96,0.00,,,0.42,,2013-05-22 08:22:00,
2013-05-22 03:31:00,55.0,54.0,29.50,NNW,348,0.0,0.0,95,0.00,,,0.42,,2013-05-22 08:31:00,
2013-05-22 03:42:00,55.0,54.0,29.50,NNW,348,0.0,0.0,95,0.00,,,0.42,,2013-05-22 08:42:00,
2013-05-22 03:52:00,55.0,54.0,29.50,NNW,348,0.0,0.0,96,0.00,,,0.42,,2013-05-22 08:52:00,
2013-05-22 04:01:00,55.0,54.0,29.50,North,355,0.0,0.0,96,0.00,,,0.42,,2013-05-22 09:01:00,
2013-05-22 04:12:00,55.0,54.0,29.50,North,355,0.0,0.0,96,0.00,,,0.42,,2013-05-22 09:12:00,
2013-05-22 04:22:00,55.0,54.0,29.50,North,355,0.0,0.0,96,0.00,,,0.42,,2013-05-22 09:22:00,
2013-05-22 04:33:00,56.0,55.0,29.51,WNW,288,0.0,2.0,97,0.00,,,0.42,,2013-05-22 09:33:00,
2013-05-22 04:42:00,56.0,55.0,29.51,WNW,288,0.0,2.0,97,0.00,,,0.42,,2013-05-22 09:42:00,
2013-05-22 04:53:00,56.0,55.0,29.51,West,273,0.0,3.0,96,0.00,,,0.42,,2013-05-22 09:53:00,
2013-05-22 05:03:00,55.0,54.0,29.52,West,273,0.0,0.0,96,0.00,,,0.42,,2013-05-22 10:03:00,
2013-05-22 05:12:00,55.0,54.0,29.52,West,273,0.0,0.0,96,0.00,,,0.42,,2013-05-22 10:12:00,
2013-05-22 05:22:00,55.0,54.0,29.52,West,273,0.0,0.0,96,0.00,,,0.42,,2013-05-22 10:22:00,
2013-05-22 05:33:00,54.0,53.0,29.52,West,272,0.0,1.0,96,0.00,,,0.42,,2013-05-22 10:33:00,
2013-05-22 05:42:00,54.0,53.0,29.52,West,272,0.0,1.0,96,0.00,,,0.42,,2013-05-22 10:42:00,
2013-05-22 05:52:00,55.0,54.0,29.52,WSW,238,0.0,1.0,96,0.00,,,0.42,,2013-05-22 10:52:00,
2013-05-22 06:02:00,54.0,53.0,29.52,WSW,238,0.0,0.0,96,0.00,,,0.42,,2013-05-22 11:02:00,
2013-05-22 06:11:00,54.0,53.0,29.52,WSW,238,0.0,0.0,96,0.00,,,0.42,,2013-05-22 11:11:00,
2013-05-22 06:21:00,53.0,52.0,29.52,WSW,238,0.0,0.0,96,0.00,,,0.42,,2013-05-22 11:21:00,
2013-05-22 06:32:00,53.0,52.0,29.52,WSW,238,0.0,0.0,96,0.00,,,0.42,,2013-05-22 11:32:00,
2013-05-22 06:42:00,53.0,52.0,29.52,WSW,238,0.0,0.0,96,0.00,,,0.42,,2013-05-22 11:42:00,
2013-05-22 06:52:00,53.0,52.0,29.52,WSW,238,0.0,0.0,96,0.00,,,0.42,,2013-05-22 11:52:00,
2013-05-22 07:02:00,54.0,53.0,29.53,WSW,238,0.0,0.0,97,0.00,,,0.42,,2013-05-22 12:02:00,
2013-05-22 07:12:00,54.0,53.0,29.53,WSW,238,0.0,0.0,97,0.00,,,0.42,,2013-05-22 12:12:00,
2013-05-22 07:22:00,54.0,53.0,29.54,WSW,238,0.0,0.0,97,0.00,,,0.42,,2013-05-22 12:22:00,
2013-05-22 07:32:00,55.0,54.0,29.54,WSW,238,0.0,0.0,97,0.00,,,0.42,,2013-05-22 12:32:00,
2013-05-22 07:42:00,55.0,54.0,29.54,WSW,238,0.0,0.0,97,0.00,,,0.42,,2013-05-22 12:42:00,
2013-05-22 07:52:00,56.0,55.0,29.54,WSW,238,0.0,0.0,97,0.00,,,0.42,,2013-05-22 12:52:00,
2013-05-22 08:01:00,58.0,57.0,29.55,SE,145,0.0,2.0,97,0.00,,,0.42,,2013-05-22 13:01:00,
2013-05-22 08:11:00,58.0,57.0,29.55,SE,145,0.0,2.0,97,0.00,,,0.42,,2013-05-22 13:11:00,
2013-05-22 08:22:00,59.0,58.0,29.56,SSE,148,0.0,2.0,97,0.00,,,0.42,,2013-05-22 13:22:00,
2013-05-22 08:32:00,61.0,60.0,29.57,ESE,118,1.0,5.0,95,0.00,,,0.42,,2013-05-22 13:32:00,
2013-05-22 08:41:00,61.0,60.0,29.57,ESE,118,1.0,5.0,95,0.00,,,0.42,,2013-05-22 13:41:00,
2013-05-22 08:52:00,62.0,60.0,29.57,ESE,105,1.0,4.0,93,0.00,,,0.42,,2013-05-22 13:52:00,
2013-05-22 09:02:00,63.0,60.0,29.58,SE,126,1.0,4.0,90,0.00,,,0.42,,2013-05-22 14:02:00,
2013-05-22 09:11:00,63.0,60.0,29.58,SE,126,1.0,4.0,90,0.00,,,0.42,,2013-05-22 14:11:00,
2013-05-22 09:21:00,64.0,61.0,29.59,East,95,0.0,3.0,89,0.00,,,0.42,,2013-05-22 14:21:00,
2013-05-22 09:32:00,66.0,63.0,29.59,South,173,1.0,3.0,89,0.00,,,0.42,,2013-05-22 14:32:00,
2013-05-22 09:42:00,66.0,63.0,29.59,South,173,1.0,3.0,89,0.00,,,0.42,,2013-05-22 14:42:00,
2013-05-22 09:52:00,66.0,61.0,29.60,SSE,153,1.0,4.0,85,0.00,,,0.42,,2013-05-22 14:52:00,
2013-05-22 10:01:00,67.0,62.0,29.60,SE,135,1.0,3.0,84,0.00,,,0.42,,2013-05-22 15:01:00,
2013-05-22 10:11:00,67.0,62.0,29.60,SE,135,1.0,3.0,84,0.00,,,0.42,,2013-05-22 15:11:00,
2013-05-22 10:22:00,68.0,62.0,29.61,South,175,0.0,2.0,82,0.00,,,0.42,,2013-05-22 15:22:00,
2013-05-22 10:32:00,70.0,62.0,29.61,SW,220,0.0,3.0,77,0.00,,,0.42,,2013-05-22 15:32:00,
2013-05-22 10:42:00,70.0,62.0,29.61,SW,220,0.0,3.0,77,0.00,,,0.42,,2013-05-22 15:42:00,
2013-05-22 10:53:00,71.0,64.0,29.61,ENE,67,0.0,3.0,79,0.00,,,0.42,,2013-05-22 15:53:00,
2013-05-22 11:03:00,71.0,63.0,29.61,SE,139,0.0,3.0,75,0.00,,,0.42,,2013-05-22 16:03:00,
2013-05-22 11:12:00,71.0,63.0,29.61,SE,139,0.0,3.0,75,0.00,,,0.42,,2013-05-22 16:12:00,
2013-05-22 11:23:00,73.0,65.0,29.61,ESE,123,4.0,7.0,75,0.00,,,0.42,,2013-05-22 16:23:00,
2013-05-22 11:32:00,73.0,64.0,29.61,SSW,210,0.0,3.0,74,0.00,,,0.42,,2013-05-22 16:32:00,
2013-05-22 11:42:00,73.0,64.0,29.61,SSW,210,0.0,3.0,74,0.00,,,0.42,,2013-05-22 16:42:00,
2013-05-22 11:52:00,75.0,65.0,29.60,East,80,0.0,5.0,72,0.00,,,0.42,,2013-05-22 16:52:00,
2013-05-22 12:02:00,75.0,65.0,29.60,ENE,62,0.0,3.0,70,0.00,,,0.42,,2013-05-22 17:02:00,
2013-05-22 12:11:00,75.0,65.0,29.60,ENE,62,0.0,3.0,70,0.00,,,0.42,,2013-05-22 17:11:00,
2013-05-22 12:23:00,76.0,64.0,29.61,NNE,15,1.0,4.0,66,0.00,,,0.42,,2013-05-22 17:23:00,
2013-05-22 12:33:00,77.0,63.0,29.60,ENE,74,1.0,6.0,63,0.00,,,0.42,,2013-05-22 17:33:00,
2013-05-22 12:42:00,77.0,63.0,29.60,ENE,74,1.0,6.0,63,0.00,,,0.42,,2013-05-22 17:42:00,
2013-05-22 12:53:00,78.0,63.0,29.59,NE,47,1.0,4.0,61,0.00,,,0.42,,2013-05-22 17:53:00,
2013-05-22 13:02:00,80.0,63.0,29.59,ENE,73,2.0,5.0,56,0.00,,,0.42,,2013-05-22 18:02:00,
2013-05-22 13:14:00,80.0,63.0,29.59,ENE,73,2.0,5.0,56,0.00,,,0.42,,2013-05-22 18:14:00,
2013-05-22 13:22:00,80.0,62.0,29.59,ENE,69,0.0,5.0,54,0.00,,,0.42,,2013-05-22 18:22:00,
2013-05-22 13:33:00,80.0,62.0,29.59,East,93,1.0,6.0,54,0.00,,,0.42,,2013-05-22 18:33:00,
2013-05-22 13:42:00,80.0,62.0,29.59,East,93,1.0,6.0,54,0.00,,,0.42,,2013-05-22 18:42:00,
2013-05-22 13:52:00,82.0,61.0,29.59,ESE,108,3.0,8.0,50,0.00,,,0.42,,2013-05-22 18:52:00,
2013-05-22 14:02:00,83.0,58.0,29.59,ESE,114,3.0,7.0,43,0.00,,,0.42,,2013-05-22 19:02:00,
2013-05-22 14:11:00,83.0,58.0,29.59,ESE,114,3.0,7.0,43,0.00,,,0.42,,2013-05-22 19:11:00,
2013-05-22 14:21:00,82.0,59.0,29.58,SE,126,1.0,9.0,46,0.00,,,0.42,,2013-05-22 19:21:00,
2013-05-22 14:32:00,83.0,62.0,29.58,SW,234,2.0,10.0,49,0.00,,,0.42,,2013-05-22 19:32:00,
2013-05-22 14:42:00,83.0,62.0,29.58,SW,234,2.0,10.0,49,0.00,,,0.42,,2013-05-22 19:42:00,
2013-05-22 14:52:00,83.0,62.0,29.58,SE,126,2.0,6.0,49,0.00,,,0.42,,2013-05-22 19:52:00,
2013-05-22 15:02:00,84.0,62.0,29.57,ESE,118,2.0,6.0,47,0.00,,,0.42,,2013-05-22 20:02:00,
2013-05-22 15:11:00,84.0,62.0,29.57,ESE,118,2.0,6.0,47,0.00,,,0.42,,2013-05-22 20:11:00,
2013-05-22 15:22:00,85.0,61.0,29.57,SE,130,1.0,5.0,45,0.00,,,0.42,,2013-05-22 20:22:00,
2013-05-22 15:32:00,85.0,59.0,29.56,North,5,2.0,8.0,41,0.00,,,0.03,,2013-05-22 20:32:00,
2013-05-22 15:42:00,85.0,59.0,29.56,North,5,2.0,8.0,41,0.00,,,0.03,,2013-05-22 20:42:00,
2013-05-22 15:51:00,86.0,58.0,29.56,ESE,111,5.0,9.0,39,0.00,,,0.03,,2013-05-22 20:51:00,
2013-05-22 16:01:00,86.0,55.0,29.55,SE,142,1.0,4.0,35,0.00,,,0.03,,2013-05-22 21:01:00,
2013-05-22 16:11:00,86.0,55.0,29.55,SE,142,1.0,4.0,35,0.00,,,0.03,,2013-05-22 21:11:00,
2013-05-22 16:21:00,86.0,55.0,29.55,SSE,163,2.0,7.0,35,0.00,,,0.03,,2013-05-22 21:21:00,
2013-05-22 16:32:00,86.0,57.0,29.54,ENE,76,3.0,8.0,37,0.00,,,0.01,,2013-05-22 21:32:00,
2013-05-22 16:42:00,86.0,57.0,29.54,ENE,76,3.0,8.0,37,0.00,,,0.01,,2013-05-22 21:42:00,
2013-05-22 16:52:00,86.0,57.0,29.53,ESE,122,3.0,9.0,37,0.00,,,0.01,,2013-05-22 21:52:00,
2013-05-22 17:03:00,86.0,57.0,29.53,East,81,3.0,8.0,37,0.00,,,0.01,,2013-05-22 22:03:00,
2013-05-22 17:13:00,86.0,57.0,29.53,East,81,3.0,8.0,37,0.00,,,0.01,,2013-05-22 22:13:00,
2013-05-22 17:22:00,86.0,56.0,29.52,ESE,104,3.0,7.0,36,0.00,,,0.01,,2013-05-22 22:22:00,
2013-05-22 17:33:00,86.0,56.0,29.52,ESE,112,3.0,9.0,36,0.00,,,0.01,,2013-05-22 22:33:00,
2013-05-22 17:42:00,86.0,56.0,29.52,ESE,112,3.0,9.0,36,0.00,,,0.01,,2013-05-22 22:42:00,
2013-05-22 17:52:00,85.0,56.0,29.51,SSE,156,2.0,7.0,37,0.00,,,0.01,,2013-05-22 22:52:00,
2013-05-22 18:02:00,84.0,55.0,29.50,SE,135,1.0,8.0,37,0.00,,,0.01,,2013-05-22 23:02:00,
2013-05-22 18:12:00,84.0,55.0,29.50,SE,135,1.0,8.0,37,0.00,,,0.01,,2013-05-22 23:12:00,
2013-05-22 18:21:00,84.0,55.0,29.50,ESE,112,3.0,9.0,37,0.00,,,0.01,,2013-05-22 23:21:00,
2013-05-22 18:32:00,84.0,55.0,29.50,East,84,3.0,9.0,37,0.00,,,0.01,,2013-05-22 23:32:00,
2013-05-22 18:42:00,84.0,55.0,29.50,East,84,3.0,9.0,37,0.00,,,0.01,,2013-05-22 23:42:00,
2013-05-22 18:52:00,83.0,55.0,29.51,ENE,65,3.0,7.0,38,0.00,,,0.01,,2013-05-22 23:52:00,
2013-05-22 19:01:00,83.0,55.0,29.51,ESE,115,4.0,9.0,39,0.00,,,0.01,,2013-05-23 00:01:00,
2013-05-22 19:11:00,83.0,55.0,29.51,ESE,115,4.0,9.0,39,0.00,,,0.01,,2013-05-23 00:11:00,
2013-05-22 19:22:00,83.0,58.0,29.51,East,92,2.0,8.0,43,0.00,,,0.01,,2013-05-23 00:22:00,
2013-05-22 19:32:00,82.0,60.0,29.50,ESE,111,3.0,9.0,47,0.00,,,0.00,,2013-05-23 00:32:00,
2013-05-22 19:42:00,82.0,60.0,29.50,ESE,111,3.0,9.0,47,0.00,,,0.00,,2013-05-23 00:42:00,
2013-05-22 19:51:00,81.0,61.0,29.51,East,93,3.0,10.0,50,0.00,,,0.00,,2013-05-23 00:51:00,
2013-05-22 20:01:00,80.0,61.0,29.50,ESE,117,4.0,8.0,52,0.00,,,0.00,,2013-05-23 01:01:00,
2013-05-22 20:11:00,80.0,61.0,29.50,ESE,117,4.0,8.0,52,0.00,,,0.00,,2013-05-23 01:11:00,
2013-05-22 20:21:00,79.0,61.0,29.51,NE,54,3.0,8.0,55,0.00,,,0.00,,2013-05-23 01:21:00,
2013-05-22 20:32:00,79.0,62.0,29.51,East,81,3.0,7.0,56,0.00,,,0.00,,2013-05-23 01:32:00,
2013-05-22 20:42:00,78.0,61.0,29.51,ESE,113,2.0,5.0,56,0.00,,,0.00,,2013-05-23 01:42:00,
2013-05-22 20:52:00,78.0,61.0,29.51,ESE,113,2.0,5.0,56,0.00,,,0.00,,2013-05-23 01:52:00,
2013-05-22 21:02:00,77.0,61.0,29.52,ESE,108,5.0,8.0,58,0.00,,,0.00,,2013-05-23 02:02:00,
2013-05-22 21:11:00,77.0,61.0,29.52,ESE,108,5.0,8.0,58,0.00,,,0.00,,2013-05-23 02:11:00,
2013-05-22 21:21:00,76.0,62.0,29.52,East,92,2.0,7.0,62,0.00,,,0.00,,2013-05-23 02:21:00,
2013-05-22 21:32:00,75.0,62.0,29.52,ESE,108,1.0,7.0,64,0.00,,,0.00,,2013-05-23 02:32:00,
2013-05-22 21:42:00,75.0,62.0,29.52,ESE,108,1.0,7.0,64,0.00,,,0.00,,2013-05-23 02:42:00,
2013-05-22 21:51:00,75.0,62.0,29.52,ESE,108,1.0,7.0,64,0.00,,,0.00,,2013-05-23 02:51:00,
2013-05-22 22:01:00,74.0,62.0,29.53,East,92,1.0,5.0,67,0.00,,,0.00,,2013-05-23 03:01:00,
2013-05-22 22:11:00,74.0,62.0,29.53,East,92,1.0,5.0,67,0.00,,,0.00,,2013-05-23 03:11:00,
2013-05-22 22:21:00,73.0,62.0,29.54,ESE,117,1.0,5.0,68,0.00,,,0.00,,2013-05-23 03:21:00,
2013-05-22 22:33:00,73.0,63.0,29.54,East,95,0.0,4.0,70,0.00,,,0.00,,2013-05-23 03:33:00,
2013-05-22 22:43:00,73.0,63.0,29.54,East,95,0.0,4.0,70,0.00,,,0.00,,2013-05-23 03:43:00,
2013-05-22 22:53:00,73.0,63.0,29.55,ESE,107,1.0,4.0,71,0.00,,,0.00,,2013-05-23 03:53:00,
2013-05-22 23:03:00,72.0,62.0,29.56,ESE,110,0.0,3.0,72,0.00,,,0.00,,2013-05-23 04:03:00,
2013-05-22 23:12:00,72.0,62.0,29.56,ESE,110,0.0,3.0,72,0.00,,,0.00,,2013-05-23 04:12:00,
2013-05-22 23:22:00,72.0,63.0,29.56,East,93,2.0,5.0,73,0.00,,,0.00,,2013-05-23 04:22:00,
2013-05-22 23:33:00,72.0,62.0,29.57,ESE,116,1.0,6.0,72,0.00,,,0.00,,2013-05-23 04:33:00,
2013-05-22 23:42:00,72.0,62.0,29.57,ESE,116,1.0,6.0,72,0.00,,,0.00,,2013-05-23 04:42:00,
2013-05-22 23:52:00,72.0,62.0,29.57,ESE,116,1.0,6.0,72,0.00,,,0.00,,2013-05-23 04:52:00,